{"data":{"norad_id":66547,"intl_designator":"2025-266C","name":"SHIJIAN-30C (SJ-30C)","alt_names":[],"object_type":"PAYLOAD","status":"ACTIVE","operator":null,"country":"PRC","launch_date":"2025-11-19","launch_site_code":"JSC","launch_vehicle":null,"mission":null,"orbit_class":"UNKNOWN","rcs_meters":null,"size_class":null,"mass_kg":null,"dimensions":null,"purposes":[],"wikipedia_slug":null,"has_3d_model":false,"image_url":null,"decayed_at":null,"tle_current":{"epoch":"2026-09-20T22:06:34.945920Z","epoch_age_seconds":87823,"freshness":"FRESH","line1":"1 66547U 25266C   26263.92123780  .00004727  00000+0  26173-3 0  9991","line2":"2 66547  51.7957  90.9053 0006429 206.9276 153.1367 15.15593457 46374","mean_motion":15.15593457,"eccentricity":0.0006429,"inclination_deg":51.7957,"raan_deg":90.9053,"arg_perigee_deg":206.9276,"mean_anomaly_deg":153.1367,"bstar":0.00026173,"rev_number":4637,"period_min":95.012286662306,"perigee_km":514.74317982006,"apogee_km":523.61174675696,"semimajor_km":6897.3144632885,"source":"CELESTRAK","updated_at":"2026-09-21T09:00:16.047512Z"}}}